[[{"header":{"parameterUnit":"m.s-1","parameterCategory":1,"la1":30.2991,"la2":30.254,"lo1":-89.0895,"lo2":-89.0444,"dy":0.0017,"dx":0.0017,"nx":28,"ny":28,"refTime":"2024-04-30T09:00:00:Z","depth":0,"parameterNumber":2,"parameterNumberName":"U-component_of_WINDS"},"data":[0,0,0,0,0,0,0,0,0,0,0,0,0,0,0,0,0,0,0,0,0,0,0,0,0,0,0,0,0,0,0,0,0,0,0,0,0,0,0,0,0,0,0,0,0,0,0,0,0,0,0,0,0,0,0,0,0,0,-1.9977,-1.9976,0,-1.9932,-1.9931,-1.9931,-1.9861,-1.986,-1.9859,-1.9857,-1.9811,-1.9811,-1.9811,0,0,0,0,0,0,0,0,0,0,0,0,0,-2.0002,-2.0002,-1.9977,-1.9976,-1.9976,-1.9932,-1.9931,-1.9931,-1.9861,-1.986,-1.9858,-1.9857,-1.9811,-1.9811,-1.9811,0,0,0,0,0,0,0,0,0,0,0,0,0,-1.9978,-2.0002,-1.9977,-1.9936,-1.9932,-1.9932,-1.9931,-1.9931,-1.9862,-1.986,-1.9858,-1.9856,-1.9811,-1.9811,-1.9811,-1.9848,0,0,-1.981,-1.981,0,0,0,0,0,0,0,0,-1.9979,-1.9977,-1.9942,-1.9939,-1.9934,-1.99,-1.9923,-1.9903,-1.9862,-1.9888,-1.9857,-1.9855,-1.9842,-1.9839,-1.9835,-1.9845,-1.9843,-1.981,-1.981,-1.981,-1.981,0,0,0,0,0,0,0,-1.9981,-1.9978,-1.9959,-1.9942,-1.9937,-1.992,-1.9914,-1.9919,-1.9876,-1.9886,-1.9881,-1.9876,-1.9839,-1.9835,-1.9833,-1.9843,-1.981,-1.981,-1.981,-1.981,-1.9881,-1.9883,0,0,0,0,0,0,-1.9989,-1.998,-1.996,-1.9958,-1.9952,-1.9921,-1.9914,-1.9913,-1.9876,-1.9869,-1.9878,-1.9873,-1.9836,-1.9834,-1.9832,-1.9872,-1.981,-1.981,-1.981,-1.9879,-1.9881,-1.9883,0,0,0,0,0,0,-1.999,-1.9988,-1.9962,-1.9968,-1.9963,-1.9922,-1.9921,-1.9913,-1.9909,-1.987,-1.9862,-1.9882,-1.9835,-1.9832,-1.9844,-1.9869,-1.981,-1.981,-1.9877,-1.988,-1.9882,-1.9953,0,0,0,0,0,0,-1.9991,-1.9988,-2.0002,-1.9968,-1.9963,-1.9976,-1.9923,-1.9914,-1.9909,-1.9902,-1.9871,-1.9864,-1.9833,-1.9845,-1.9844,-1.9868,-1.981,-1.9874,-1.9878,-1.9881,-1.9948,-1.9958,-1.9966,0,0,0,0,0,-1.9992,-2.0024,-2.0003,-2.0001,-1.9979,-1.9978,-1.9974,-1.9938,-1.9911,-1.9924,-1.99,-1.9865,-1.9867,-1.9847,-1.9845,-1.9869,-1.9872,-1.9877,-1.9881,-1.9944,-1.9956,-1.9966,0,0,0,0,0,0,-2.0061,-2.0018,-1.9995,-2.0017,-2.0002,-1.9966,-1.9981,-1.9952,-1.9943,-1.9937,-1.9892,-1.9886,-1.9904,-1.9888,-1.9866,-1.9903,-1.9864,-1.9869,-1.9913,-1.9924,-1.9933,-1.9936,-1.981,0,0,0,0,0,-2.0079,-2.0081,-2.0044,-2.0067,-2.006,-2.0023,-2.002,-1.9994,-1.9976,-1.9969,-1.9944,-1.9928,-1.9925,-1.9923,-1.9918,-1.9946,-1.9938,-1.9962,-1.9971,-1.9979,-1.9983,-1.9996,-2.0006,-1.9898,-1.9898,-1.9898,0,0,-2.0115,-2.0093,-2.0097,-2.008,-2.0065,-2.0068,-2.0017,-2.0023,-2.0025,-1.9969,-1.9979,-1.9962,-1.994,-1.996,-1.9968,-1.9948,-2.0011,-1.9984,-1.9991,-1.999,-2.0001,-2.0012,-2.0021,-1.9901,-1.99,-1.99,0,0,-2.0184,-2.0167,-2.0184,-2.017,-2.0148,-2.0123,-2.0127,-2.0096,-2.0082,-2.0091,-2.005,-2.0052,-2.0047,-2.0033,-2.0026,-2.009,-2.0058,-2.009,-2.0137,-2.015,-2.0158,-2.0166,-2.0188,-2.0197,-2.0094,-2.0094,-2.0094,0,-2.0232,-2.0235,-2.0197,-2.0205,-2.0199,-2.0149,-2.0166,-2.0154,-2.0132,-2.0128,-2.0106,-2.0099,-2.0081,-2.0098,-2.0113,-2.0109,-2.0112,-2.0093,-2.016,-2.0167,-2.0174,-2.0194,-2.0203,-2.0098,-2.0098,-2.0097,-2.0097,0,-2.0296,-2.0299,-2.0315,-2.0295,-2.0291,-2.0303,-2.0266,-2.0267,-2.0241,-2.0218,-2.0228,-2.0206,-2.0195,-2.0197,-2.0172,-2.021,-2.0197,-2.0169,-2.0128,-2.0188,-2.0207,-2.0215,-2.0104,-2.0102,-2.0101,-2.01,0,0,-2.0405,-2.0364,-2.037,-2.0361,-2.0333,-2.0334,-2.0345,-2.0335,-2.0336,-2.0322,-2.0329,-2.0327,-2.03,-2.0291,-2.0264,-2.0276,-2.0328,-2.0245,-2.0244,-2.0261,-2.0368,-2.0389,-2.0399,-2.0307,-2.0308,-2.0309,-2.0369,0,-2.0468,-2.0483,-2.0449,-2.0473,-2.0475,-2.0428,-2.0437,-2.0421,-2.04,-2.0399,-2.0376,-2.0375,-2.034,-2.0334,-2.0344,-2.032,-2.0349,-2.0315,-2.0313,-2.0313,-2.0319,-2.0409,-2.0431,-2.0489,-2.0376,-2.0378,-2.0378,0,-2.0542,-2.0532,-2.0556,-2.0527,-2.0527,-2.0536,-2.0523,-2.0523,-2.0504,-2.0488,-2.0479,-2.0447,-2.0455,-2.0418,-2.0428,-2.0406,-2.0403,-2.0391,-2.0393,-2.039,-2.0349,-2.0408,-2.0506,-2.0515,-2.039,-2.0389,-2.0388,0,-2.0619,-2.0612,-2.0625,-2.0618,-2.0585,-2.0592,-2.0578,-2.0557,-2.0554,-2.0543,-2.054,-2.0531,-2.0526,-2.0519,-2.0485,-2.0461,-2.05,-2.0459,-2.0486,-2.0487,-2.0495,-2.0495,-2.0594,-2.0495,-2.0495,-2.0495,-2.0495,0,-2.0691,-2.0708,-2.0659,-2.0668,-2.0685,-2.0645,-2.0663,-2.0645,-2.0627,-2.063,-2.059,-2.0594,-2.055,-2.055,-2.0524,-2.0536,-2.0534,-2.0521,-2.0513,-2.0524,-2.0526,-2.0521,-2.0516,-2.0497,-2.0497,-2.0496,-2.0496,0,-2.078,-2.0748,-2.0759,-2.0727,-2.0719,-2.0733,-2.0705,-2.0711,-2.0688,-2.0694,-2.0693,-2.0656,-2.0654,-2.062,-2.061,-2.0592,-2.0614,-2.06,-2.0621,-2.0616,-2.0644,-2.0642,-2.0743,-2.0754,-2.0649,-2.065,-2.0651,0,-2.0828,-2.0839,-2.0808,-2.0808,-2.0796,-2.0796,-2.0792,-2.0754,-2.0751,-2.0731,-2.074,-2.0734,-2.0727,-2.0724,-2.0697,-2.0689,-2.0673,-2.0709,-2.0672,-2.0682,-2.0673,-2.0673,-2.0673,-2.0717,-2.0719,-2.072,-2.072,0,-2.0916,-2.09,-2.0896,-2.0886,-2.0882,-2.0873,-2.0861,-2.0863,-2.0821,-2.082,-2.0817,-2.0812,-2.0802,-2.0796,-2.0783,-2.0769,-2.0738,-2.0733,-2.0738,-2.0749,-2.076,-2.0754,-2.0642,-2.073,-2.0729,-2.0729,-2.0728,-2.0728,-2.0985,-2.0993,-2.0973,-2.0969,-2.0956,-2.0946,-2.095,-2.0928,-2.0925,-2.0914,-2.0892,-2.0892,-2.0872,-2.0852,-2.084,-2.084,-2.0821,-2.0829,-2.0831,-2.0834,-2.0839,-2.0761,-2.0837,-2.0837,-2.0837,-2.0836,-2.0836,0,-2.1071,-2.1055,-2.1053,-2.1037,-2.1035,-2.1006,-2.0992,-2.0991,-2.0992,-2.0977,-2.0971,-2.0967,-2.0962,-2.0935,-2.0926,-2.0931,-2.0916,-2.093,-2.0928,-2.0926,-2.0857,-2.0852,-2.0942,-2.0942,-2.0942,-2.0942,-2.0941,-2.0941,-2.1115,-2.1127,-2.1109,-2.1114,-2.1098,-2.1098,-2.1092,-2.1083,-2.107,-2.1068,-2.1064,-2.1046,-2.1025,-2.1015,-2.1009,-2.1001,-2.0999,-2.1017,-2.1005,-2.0941,-2.093,-2.0921,-2.0916,-2.1018,-2.1018,-2.1073,-2.1074,-2.1074]},{"header":{"parameterUnit":"m.s-1","parameterCategory":1,"la1":30.2991,"la2":30.254,"lo1":-89.0895,"lo2":-89.0444,"dy":0.0017,"dx":0.0017,"nx":28,"ny":28,"refTime":"2024-04-30T09:00:00:Z","depth":0,"parameterNumber":3,"parameterNumberName":"V-component_of_WINDS"},"data":[0,0,0,0,0,0,0,0,0,0,0,0,0,0,0,0,0,0,0,0,0,0,0,0,0,0,0,0,0,0,0,0,0,0,0,0,0,0,0,0,0,0,0,0,0,0,0,0,0,0,0,0,0,0,0,0,0,0,2.0516,2.0516,0,2.0546,2.0547,2.0547,2.0545,2.0544,2.0544,2.0543,2.0573,2.0574,2.0575,0,0,0,0,0,0,0,0,0,0,0,0,0,2.0452,2.0453,2.0515,2.0516,2.0516,2.0546,2.0547,2.0547,2.0545,2.0544,2.0544,2.0543,2.0572,2.0574,2.0575,0,0,0,0,0,0,0,0,0,0,0,0,0,2.0481,2.0454,2.0515,2.0519,2.0519,2.0546,2.0547,2.0547,2.0545,2.0544,2.0543,2.0543,2.0572,2.0574,2.0575,2.06,0,0,2.0581,2.0582,0,0,0,0,0,0,0,0,2.0479,2.0483,2.0518,2.0519,2.0519,2.0541,2.0535,2.0565,2.0545,2.0535,2.0543,2.0542,2.0563,2.0565,2.0572,2.0602,2.0603,2.0581,2.0582,2.0583,2.0583,0,0,0,0,0,0,0,2.0477,2.0482,2.0528,2.0518,2.0519,2.0518,2.0521,2.0541,2.0552,2.0536,2.0536,2.054,2.0563,2.0571,2.0573,2.0603,2.0581,2.0583,2.0584,2.0584,2.0655,2.0656,0,0,0,0,0,0,2.0475,2.048,2.0527,2.0529,2.0497,2.052,2.0523,2.0535,2.0552,2.0554,2.054,2.0539,2.0568,2.0571,2.0574,2.0605,2.0583,2.0585,2.0586,2.0655,2.0656,2.0656,0,0,0,0,0,0,2.0474,2.0479,2.0525,2.0504,2.051,2.0521,2.0534,2.0536,2.0544,2.0555,2.0557,2.0546,2.0567,2.0571,2.0594,2.0606,2.0585,2.0587,2.0654,2.0655,2.0656,2.0667,0,0,0,0,0,0,2.0472,2.0479,2.0489,2.0505,2.0511,2.0546,2.0535,2.0537,2.0547,2.0546,2.0561,2.0563,2.0567,2.0591,2.0596,2.0608,2.0589,2.0653,2.0654,2.0656,2.0666,2.0669,2.0671,0,0,0,0,0,2.047,2.049,2.0489,2.0495,2.0524,2.0546,2.055,2.0555,2.0548,2.0558,2.0565,2.0563,2.0604,2.0594,2.0599,2.0612,2.0652,2.0654,2.0656,2.0665,2.0668,2.0671,0,0,0,0,0,0,2.0474,2.0492,2.0492,2.0518,2.0531,2.0546,2.0559,2.0558,2.0573,2.0571,2.0576,2.0579,2.0602,2.0609,2.0598,2.0637,2.0627,2.063,2.0632,2.0635,2.0638,2.0636,2.059,0,0,0,0,0,2.0479,2.0496,2.051,2.0532,2.0538,2.0548,2.0557,2.056,2.0573,2.0578,2.0587,2.06,2.0615,2.0626,2.0641,2.0666,2.067,2.0678,2.068,2.0682,2.0685,2.07,2.0704,2.0662,2.0662,2.0662,0,0,2.0487,2.0499,2.051,2.0533,2.0543,2.0561,2.0552,2.057,2.0583,2.0581,2.0603,2.061,2.0624,2.0649,2.066,2.0655,2.0697,2.0685,2.0686,2.0688,2.0702,2.0706,2.071,2.0664,2.0663,2.0663,0,0,2.0512,2.0523,2.0543,2.0553,2.0569,2.0575,2.058,2.0595,2.06,2.0623,2.0622,2.0636,2.0663,2.0673,2.0682,2.0711,2.0709,2.0716,2.0729,2.0744,2.0747,2.075,2.0761,2.0765,2.0718,2.0718,2.0718,0,2.0521,2.0548,2.0553,2.0572,2.0582,2.0581,2.0601,2.0611,2.0631,2.0638,2.0632,2.0666,2.0675,2.0703,2.071,2.0717,2.0722,2.0714,2.0746,2.0749,2.0752,2.0763,2.0767,2.0719,2.0719,2.0719,2.0719,0,2.0558,2.0576,2.059,2.0611,2.0622,2.0641,2.0649,2.066,2.0662,2.0668,2.0691,2.0702,2.072,2.0726,2.0727,2.0754,2.075,2.0745,2.0735,2.0757,2.0767,2.0771,2.072,2.072,2.0719,2.0719,0,0,2.0587,2.061,2.0616,2.0625,2.0642,2.0656,2.0675,2.0693,2.0703,2.0716,2.0733,2.0755,2.0751,2.0761,2.0763,2.0776,2.0799,2.0769,2.077,2.0775,2.0829,2.0833,2.0838,2.0797,2.0798,2.0799,2.0828,0,2.0615,2.065,2.0655,2.0685,2.0703,2.0702,2.0718,2.0731,2.0737,2.0752,2.0758,2.0775,2.0768,2.0774,2.0786,2.0793,2.081,2.0791,2.0812,2.0813,2.081,2.0843,2.0848,2.0875,2.0832,2.0833,2.0833,0,2.0652,2.0668,2.07,2.0716,2.0723,2.0738,2.0755,2.0769,2.0783,2.0787,2.0798,2.0799,2.0818,2.0806,2.0833,2.082,2.0829,2.0834,2.0835,2.0838,2.0825,2.0848,2.0884,2.0888,2.0839,2.0839,2.0838,0,2.0671,2.07,2.0724,2.0731,2.075,2.0761,2.0769,2.0782,2.0792,2.0807,2.0814,2.083,2.0839,2.0851,2.0856,2.0847,2.0883,2.0871,2.0886,2.0886,2.0894,2.0894,2.0933,2.0898,2.0898,2.0898,2.0898,0,2.0702,2.0722,2.0733,2.0747,2.077,2.0775,2.0797,2.0804,2.0816,2.0831,2.0831,2.0845,2.0851,2.0866,2.0869,2.0891,2.0895,2.0898,2.0899,2.0899,2.0899,2.0905,2.0904,2.0899,2.0899,2.0899,2.0899,0,2.0728,2.0736,2.0762,2.0777,2.0782,2.0797,2.0811,2.0824,2.083,2.085,2.0855,2.0864,2.0882,2.0888,2.0909,2.0911,2.0937,2.0936,2.0933,2.0933,2.0948,2.0947,2.0994,2.1001,2.0961,2.0961,2.0961,0,2.0748,2.0764,2.0781,2.0792,2.0801,2.0818,2.0829,2.0834,2.0846,2.0863,2.0874,2.0892,2.0907,2.0935,2.0943,2.096,2.0959,2.0975,2.0962,2.0961,2.0961,2.096,2.0962,2.0977,2.0978,2.0978,2.0978,0,2.0782,2.0786,2.0802,2.082,2.0834,2.0848,2.0861,2.087,2.0877,2.089,2.0908,2.092,2.0942,2.096,2.0976,2.0984,2.0982,2.0982,2.0987,2.0987,2.0985,2.0987,2.0941,2.0981,2.0981,2.0981,2.0981,2.0981,2.0806,2.0821,2.0836,2.0854,2.0865,2.0878,2.0892,2.09,2.0916,2.0935,2.0936,2.0957,2.097,2.0992,2.1,2.1016,2.1011,2.1018,2.1019,2.1021,2.1023,2.0982,2.1019,2.1018,2.1018,2.1018,2.1018,0,2.0842,2.0851,2.0868,2.0888,2.0902,2.09,2.0915,2.0927,2.0945,2.0958,2.0972,2.0994,2.1011,2.1021,2.1038,2.1048,2.1048,2.1053,2.1052,2.1054,2.1025,2.102,2.1053,2.1053,2.1053,2.1053,2.1053,2.1053,2.0862,2.0886,2.0891,2.092,2.0929,2.095,2.0959,2.097,2.0981,2.1005,2.102,2.1026,2.1037,2.1055,2.1071,2.1073,2.108,2.1085,2.1087,2.106,2.1056,2.1053,2.1048,2.1086,2.1086,2.1115,2.1115,2.1115]}]]